Вернуться в каталог

DELTA 1 DEB *

АктивенLEO
NORAD 10519·DEBRIS·🇺🇸 United States

Запущен Dec 15, 1977 с Cape Canaveral Space Force Station

Loading…

Ближайшие Пролёты (ближайшие 24 часа)

TLE

СвежийSource: Space-Track

Эпоха: Sep 14, 2026, 00:02 UTC

1 10519U 77118C   26257.00151994  .00000324  00000-0  67042-4 0  9993
2 10519  29.0565 244.0798 0811314 171.5633 189.9511 13.30756784348129

Отслеживайте DELTA 1 DEB * в реальном времени с AllMySat

Download on the App Store